Location: Julian California
(33.0790°N, 116.6010°W)
Time: 22:27:18
(UTC-08:00)

H-2A R/B - Pass Details

Date: 12 July 2018
Orbit: 733 x 838 km, 98.3° (Epoch: 08 December)

Event Time Altitude Azimuth Distance (km) Brightness Sun altitude
Exits shadow 21:09:56 20° 128° (SE) 1,860 3.3 -13.7°
Maximum altitude 21:13:13 39° 71° (ENE) 1,244 2.8 -14.2°
Drops below altitude 10° 21:18:13 10° 5° (N) 2,447 5.1 -15.1°
Sets 21:20:42 0° 358° (N) 3,378 6.0 -15.5°
